Location: Nied?wied?
(53.3665°N, 14.8184°E)
Time: 21:55:39
(UTC+00:00)

Cosmos 1937 Rocket - Pass Details

Date: 03 March 2021
Orbit: 747 x 779 km, 74.0° (Epoch: 12 April)

Event Time Altitude Azimuth Distance (km) Brightness Sun altitude
Rises 19:19:29 0° 335° (NNW) 3,227 7.4 -23.8°
Reaches altitude 10° 19:21:59 10° 342° (NNW) 2,294 6.5 -24.1°
Enters shadow 19:26:31 43° 41° (NE) 1,055 4.0 -24.7°
